Weather History for Mora, MN

Change the Weather History Date:

Tuesday, October 30, 2012

  Actual Average Record
Temperature  
Mean Temperature 36 °F -  
Max Temperature 48 °F 51 °F 78 °F (1950)
Min Temperature 24 °F 27 °F 4 °F (1984)
Degree Days  
Heating Degree Days 29    
Moisture  
Dew Point 23 °F    
Average Humidity 67    
Maximum Humidity 93    
Minimum Humidity 29    
Precipitation  
Precipitation 0.00 in - - ()
Sea Level Pressure  
Sea Level Pressure 30.19 in    
Wind  
Wind Speed 2 mph (NE)    
Max Wind Speed 10 mph    
Max Gust Speed -    
Visibility 10 miles    
Events      
Averages and records for this station are not official NWS values.
T = Trace of Precipitation, MM = Missing Value Source: NWS Daily Summary

Daily Weather History Graph

Daily Weather History Graph

Search for Another Location

Airport:

Trip Planner

Search our weather history database for the weather conditions in past years. The results will help you decide how hot, cold, wet, or windy it might be!

Date:

Astronomy

Oct. 30, 2012 Rise Set
Actual Time 7:51 AM CDT 6:01 PM CDT
Civil Twilight 7:20 AM CDT 6:32 PM CDT
Nautical Twilight 6:45 AM CDT 7:07 PM CDT
Astronomical Twilight 6:10 AM CDT 7:42 PM CDT
Moon 6:26 PM CDT (10/30) 8:42 AM CDT (10/30)
Length of Visible Light 11h 12m
Length of Day
10h 10m
Full, 99% of the Moon is Illuminated
Oct 30
Full
Nov 6
Last Quarter
Nov 13
New
Nov 20
First Quarter
Nov 28
Full

Hourly Weather History & Observations

Time (CDT) Temp. Windchill Dew Point Humidity Pressure Visibility Wind Dir Wind Speed Gust Speed Precip Events Conditions
12:01 AM 28.4 °F - 23.0 °F 80% 30.27 in 10.0 mi Calm Calm - N/A   Clear
12:21 AM 32.0 °F 27.5 °F 24.8 °F 75% 30.27 in 10.0 mi ENE 4.6 mph - N/A   Clear
12:41 AM 32.0 °F - 23.0 °F 69% 30.27 in 10.0 mi Calm Calm - N/A   Clear
1:01 AM 32.0 °F - 23.0 °F 69% 30.27 in 10.0 mi Calm Calm - N/A   Clear
1:21 AM 32.0 °F - 23.0 °F 69% 30.26 in 10.0 mi Calm Calm - N/A   Clear
1:41 AM 32.0 °F - 23.0 °F 69% 30.27 in 10.0 mi Calm Calm - N/A   Clear
2:01 AM 32.0 °F - 23.0 °F 69% 30.27 in 10.0 mi Calm Calm - N/A   Clear
2:41 AM 30.2 °F - 23.0 °F 75% 30.27 in 10.0 mi Calm Calm - N/A   Clear
3:01 AM 30.2 °F - 23.0 °F 75% 30.27 in 10.0 mi Calm Calm - N/A   Clear
3:21 AM 30.2 °F - 23.0 °F 75% 30.27 in 10.0 mi Calm Calm - N/A   Clear
4:01 AM 30.2 °F - 23.0 °F 75% 30.26 in 10.0 mi Calm Calm - N/A   Clear
4:21 AM 30.2 °F - 23.0 °F 75% 30.26 in 10.0 mi Calm Calm - N/A   Clear
4:41 AM 30.2 °F 26.7 °F 23.0 °F 75% 30.25 in 10.0 mi ENE 3.5 mph - N/A   Clear
5:01 AM 30.2 °F - 24.8 °F 80% 30.25 in 10.0 mi Calm Calm - N/A   Clear
5:21 AM 30.2 °F - 24.8 °F 80% 30.25 in 10.0 mi Calm Calm - N/A   Clear
5:41 AM 30.2 °F - 24.8 °F 80% 30.25 in 10.0 mi Calm Calm - N/A   Clear
6:01 AM 30.2 °F 26.7 °F 24.8 °F 80% 30.25 in 10.0 mi NE 3.5 mph - N/A   Clear
6:21 AM 30.2 °F - 26.6 °F 86% 30.25 in 10.0 mi Calm Calm - N/A   Clear
6:41 AM 26.6 °F - 23.0 °F 86% 30.25 in 10.0 mi Calm Calm - N/A   Clear
7:01 AM 26.6 °F - 23.0 °F 86% 30.25 in 10.0 mi Calm Calm - N/A   Clear
7:21 AM 26.6 °F - 24.8 °F 93% 30.25 in 10.0 mi Calm Calm - N/A   Clear
7:41 AM 26.6 °F - 23.0 °F 86% 30.25 in 10.0 mi Calm Calm - N/A   Clear
8:01 AM 26.6 °F - 24.8 °F 93% 30.25 in 10.0 mi Calm Calm - N/A   Clear
8:21 AM 26.6 °F - 24.8 °F 93% 30.25 in 10.0 mi Calm Calm - N/A   Clear
8:41 AM 26.6 °F - 24.8 °F 93% 30.25 in 10.0 mi Calm Calm - N/A   Clear
9:01 AM 32.0 °F - 30.2 °F 93% 30.25 in 10.0 mi Calm Calm - N/A   Clear
9:21 AM 32.0 °F - 30.2 °F 93% 30.25 in 10.0 mi Calm Calm - N/A   Clear
9:41 AM 33.8 °F 30.8 °F 32.0 °F 93% 30.25 in 10.0 mi NE 3.5 mph - N/A   Clear
10:01 AM 35.6 °F 31.7 °F 32.0 °F 87% 30.25 in 10.0 mi ENE 4.6 mph - N/A   Clear
10:21 AM 35.6 °F 31.7 °F 32.0 °F 87% 30.24 in 10.0 mi ENE 4.6 mph - N/A   Clear
10:41 AM 37.4 °F 30.3 °F 32.0 °F 81% 30.24 in 10.0 mi ENE 10.4 mph - N/A   Clear
11:01 AM 37.4 °F 31.4 °F 32.0 °F 81% 30.24 in 10.0 mi ENE 8.1 mph - N/A   Scattered Clouds
11:21 AM 39.2 °F 35.0 °F 32.0 °F 75% 30.23 in 10.0 mi ENE 5.8 mph - N/A   Clear
11:41 AM 39.2 °F 35.0 °F 32.0 °F 75% 30.23 in 10.0 mi NE 5.8 mph - N/A   Clear
12:01 PM 41.0 °F 38.0 °F 30.2 °F 65% 30.22 in 10.0 mi NE 4.6 mph - N/A   Clear
12:21 PM 42.8 °F 38.6 °F 32.0 °F 66% 30.20 in 10.0 mi NE 6.9 mph - N/A   Clear
12:41 PM 44.6 °F 41.4 °F 32.0 °F 61% 30.19 in 10.0 mi ENE 5.8 mph - N/A   Clear
1:01 PM 44.6 °F 40.7 °F 32.0 °F 61% 30.19 in 10.0 mi ENE 6.9 mph - N/A   Clear
1:21 PM 44.6 °F 42.2 °F 30.2 °F 57% 30.18 in 10.0 mi North 4.6 mph - N/A   Clear
1:41 PM 46.4 °F 42.9 °F 28.4 °F 50% 30.17 in 10.0 mi NNE 6.9 mph - N/A   Clear
2:01 PM 44.6 °F 40.2 °F 26.6 °F 49% 30.16 in 10.0 mi NE 8.1 mph - N/A   Clear
2:21 PM 46.4 °F 42.9 °F 28.4 °F 50% 30.15 in 10.0 mi NE 6.9 mph - N/A   Clear
2:41 PM 48.2 °F - 26.6 °F 43% 30.14 in 10.0 mi NE 8.1 mph - N/A   Clear
3:01 PM 46.4 °F 42.4 °F 21.2 °F 37% 30.14 in 10.0 mi North 8.1 mph - N/A   Clear
3:21 PM 44.6 °F 39.7 °F 17.6 °F 34% 30.14 in 10.0 mi ENE 9.2 mph - N/A   Clear
3:41 PM 44.6 °F 40.7 °F 14.0 °F 29% 30.14 in 10.0 mi NE 6.9 mph - N/A   Clear
4:01 PM 44.6 °F 40.7 °F 14.0 °F 29% 30.14 in 10.0 mi ENE 6.9 mph - N/A   Clear
4:21 PM 44.6 °F 40.2 °F 15.8 °F 31% 30.14 in 10.0 mi ENE 8.1 mph - N/A   Clear
4:41 PM 44.6 °F 40.7 °F 14.0 °F 29% 30.14 in 10.0 mi ENE 6.9 mph - N/A   Clear
5:01 PM 42.8 °F 39.3 °F 14.0 °F 31% 30.14 in 10.0 mi ENE 5.8 mph - N/A   Clear
5:21 PM 41.0 °F 38.0 °F 14.0 °F 33% 30.13 in 10.0 mi ENE 4.6 mph - N/A   Clear
5:41 PM 37.4 °F 33.8 °F 14.0 °F 38% 30.14 in 10.0 mi ENE 4.6 mph - N/A   Clear
6:01 PM 37.4 °F 33.8 °F 14.0 °F 38% 30.14 in 10.0 mi ENE 4.6 mph - N/A   Clear
6:21 PM 35.6 °F 32.8 °F 14.0 °F 41% 30.13 in 10.0 mi NE 3.5 mph - N/A   Clear
6:41 PM 35.6 °F 32.8 °F 14.0 °F 41% 30.13 in 10.0 mi ENE 3.5 mph - N/A   Clear
7:01 PM 33.8 °F - 14.0 °F 44% 30.13 in 10.0 mi Calm Calm - N/A   Clear
7:21 PM 32.0 °F - 14.0 °F 48% 30.13 in 10.0 mi Calm Calm - N/A   Clear
7:41 PM 32.0 °F - 17.6 °F 55% 30.12 in 10.0 mi Calm Calm - N/A   Clear
8:01 PM 32.0 °F 28.7 °F 15.8 °F 51% 30.11 in 10.0 mi NE 3.5 mph - N/A   Clear
8:21 PM 30.2 °F - 15.8 °F 55% 30.12 in 10.0 mi Calm Calm - N/A   Clear
8:41 PM 26.6 °F - 17.6 °F 69% 30.12 in 10.0 mi Calm Calm - N/A   Clear
9:01 PM 26.6 °F - 17.6 °F 69% 30.11 in 10.0 mi Calm Calm - N/A   Clear
9:21 PM 26.6 °F - 19.4 °F 74% 30.11 in 10.0 mi Calm Calm - N/A   Clear
9:41 PM 26.6 °F - 19.4 °F 74% 30.11 in 10.0 mi Calm Calm - N/A   Clear
10:01 PM 26.6 °F - 19.4 °F 74% 30.11 in 10.0 mi Calm Calm - N/A   Clear
10:21 PM 26.6 °F - 17.6 °F 69% 30.10 in 10.0 mi Calm Calm - N/A   Clear
10:41 PM 26.6 °F - 19.4 °F 74% 30.10 in 10.0 mi Calm Calm - N/A   Clear
11:01 PM 24.8 °F - 19.4 °F 80% 30.10 in 10.0 mi Calm Calm - N/A   Clear
11:21 PM 24.8 °F - 19.4 °F 80% 30.10 in 10.0 mi Calm Calm - N/A   Clear
11:41 PM 24.8 °F - 19.4 °F 80% 30.10 in 10.0 mi Calm Calm - N/A   Clear